This demonstration page uses our WeatherBlox Daily Observations layout. Learn more.

Left ArrowRight Arrow

38.83388, -104.82136

Hourly Observations for January 29, 2022

Temp ( °F °C ) Dew Point ( °F °C ) Humidity (%) Winds ( mph kmh ) Pressure ( in mb ) Visibility ( mi km ) Precip ( " mm )
4:58 am 04:58 Clear 40 4.2 -6 -21 14 14 WSW 8 13 29.95 1014 10 16 0.00 0.00
5:58 am 05:58 Clear 38 3.5 -4 -20 16 16 W 3 6 29.97 1015 10 16 0.00 0.00
6:56 am 06:56 Clear 38 3.4 -5 -20.8 15 15 Calm 30.00 1016 10 16 0.00 0.00
7:58 am 07:58 Sunny 44 6.5 -7 -21.9 11 11 Calm 29.96 1014 10 16 0.00 0.00
8:58 am 08:58 Sunny 50 9.8 -9 -23 8 8 E 7 11 29.92 1013 10 16 0.00 0.00
9:58 am 09:58 Sunny 51 10.6 -4 -19.8 10 10 ENE 7 11 29.92 1013 10 16 0.00 0.00
10:58 am 10:58 Sunny 52 11.1 -1 -18.3 11 11 E 12 19 29.89 1012 10 16 0.00 0.00
11:58 am 11:58 Sunny 52 10.9 -8 -22.2 8 8 ENE 12 19 29.86 1011 10 16 0.00 0.00
12:58 pm 12:58 Sunny 52 11.3 4 -15.3 14 14 ENE 12 19 29.83 1010 10 16 0.00 0.00
1:58 pm 13:58 Sunny 50 10.1 1 -17.1 13 13 E 14 22 29.80 1009 10 16 0.00 0.00
2:58 pm 14:58 Sunny 50 9.9 1 -17.3 13 13 E 12 19 29.79 1009 10 16 0.00 0.00
3:58 pm 15:58 Sunny 47 8.1 3 -16.3 16 16 ESE 7 11 29.79 1009 10 16 0.00 0.00
4:58 pm 16:58 Sunny 44 6.4 5 -15 20 20 Calm 29.81 1010 10 16 0.00 0.00
5:58 pm 17:58 Clear 42 5.6 5 -15 21 21 SE 5 7 29.83 1010 10 16 0.00 0.00
6:58 pm 18:58 Clear 39 3.9 5 -14.9 24 24 WSW 5 7 30.07 1018 10 16 0.00 0.00
7:58 pm 19:58 Clear 40 4.4 4 -15.5 22 22 WSW 6 9 29.83 1010 10 16 0.00 0.00
8:58 pm 20:58 Clear 41 5.2 1 -17.2 18 18 Calm 29.79 1009 10 16 0.00 0.00
9:58 pm 21:58 Clear 40 4.7 0 -17.6 18 18 SE 3 6 29.78 1008 10 16 0.00 0.00
10:58 pm 22:58 Clear 38 3.5 1 -17.4 20 20 Calm 29.77 1008 10 16 0.00 0.00
11:58 pm 23:58 Clear 38 3.3 -1 -18.2 19 19 Calm 29.79 1009 10 16 0.00 0.00

Powered by AerisWeather